カタログに戻る

COSMOS 1720

運用中軍事LEO
NORAD 16453·PAYLOAD·🇷🇺 Russia

打ち上げ Jan 9, 1986 から Plesetsk Cosmodrome

Loading…

次のパス (今後24時間)

TLE

最新Source: Space-Track

元期: Sep 14, 2026, 23:35 UTC

1 16453U 86002E   26257.98265773  .00000006  00000-0  14158-3 0  9992
2 16453  73.9889 143.8739 0027682 155.5047 217.0222 12.50636970857355

AllMySatでCOSMOS 1720をリアルタイム追跡

Download on the App Store